Regional Weather Roundup
Issued by NWS

Home | Current Version | Previous Version | Text Only | Print | Product List | Glossary Off
Versions: 1 2 3 4 5 6 7 8 9 10 11 12 13 14 15 16 17 18 19 20 21 22 23 24 25 26 27

000
ASUS45 KBOU 281807
RWRCO

WEATHER ROUNDUP FOR COLORADO
NATIONAL WEATHER SERVICE DENVER/BOULDER CO
1200 PM MDT SAT MAY 28 2016

NOTE: "FAIR" INDICATES FEW OR NO CLOUDS BELOW 12000 FEET WITH NO
SIGNIFICANT WEATHER AND/OR OBSTRUCTIONS TO VISIBILITY.

COZ001>005-013-030-031-281900-
...NORTHWEST COLORADO...

CITY           SKY/WX    TMP DP  RH WIND       PRES   REMARKS
CRAIG          PTSUNNY   63  38  39 W6        30.10F
HAYDEN         FAIR      59  36  41 W9        30.11F
MEEKER         FAIR      63  38  39 W10G17    30.11S
MOUNT WERNER   NOT AVBL
STEAMBOAT SPGS PTSUNNY   58  35  41 W6        30.12S
WALDEN         PTSUNNY   54  30  40 SW9       30.17S
$$

COZ006>008-011-281900-
...WEST CENTRAL VALLEYS...

CITY           SKY/WX    TMP DP  RH WIND       PRES   REMARKS
GRAND JUNCTION FAIR      67  37  33 CALM      30.06F
MONTROSE       FAIR      66  31  27 SE5       30.12F
EAGLE          NOT AVBL
RIFLE          FAIR      67  35  30 N6        30.08F
DELTA          FAIR      70  34  26 CALM      30.08F
NUCLA          FAIR      66  27  22 CALM      30.14S
$$

COZ017>023-064>068-281900-
...SOUTHWEST COLORADO...

CITY           SKY/WX    TMP DP  RH WIND       PRES   REMARKS
DURANGO        FAIR      65  29  25 MISG      30.14S
CORTEZ         FAIR      71  30  21 MISG      30.10S
PAGOSA SPRINGS FAIR      61  25  26 S5        30.19S
TELLURIDE      PTSUNNY   56  21  25 CALM      30.25S
WOLF CREEK PAS FAIR      41  27  56 S13G18    30.39S
$$

COZ009-010-012-014-032>034-037-058>063-281900-
...CENTRAL COLORADO...

CITY           SKY/WX    TMP DP  RH WIND       PRES   REMARKS
ASPEN          PTSUNNY   57  30  35 CALM      30.17S
BUENA VISTA    PTSUNNY   59  21  23 N8        30.15F
COPPER MTN     NOT AVBL
BERTHOUD PASS  FAIR      27  18  69 NW18      30.33R WCI  13
COTTONWOOD PAS PTSUNNY   55  19  24 SW6       30.25S
GUNNISON       FAIR      55  34  44 SE3       30.21S
KREMMLING      LGT RAIN  54  36  50 N5        30.16S
LEADVILLE      CLOUDY    45  27  49 MISG      30.25S
MONARCH PASS   PTSUNNY   36  27  69 SW20G28   30.45R
SALIDA         PTSUNNY   64  27  24 W10G16    30.21S
SUNLIGHT       FAIR      46  27  46 CALM      30.34S
WILKERSON PASS PTSUNNY   43  30  61 W5        30.33R
$$

COZ069>075-281900-
...SAN LUIS VALLEY/SANGRE DE CRISTO MOUNTAINS...

CITY           SKY/WX    TMP DP  RH WIND       PRES   REMARKS
ALAMOSA        FAIR      58  38  47 VRB3      30.18F
LA VETA PASS   FAIR      50  32  50 S10G20    30.28S
SAGUACHE       FAIR      59  32  36 S15       30.19S
$$

COZ035-036-038>040-281900-
...NORTHERN COLORADO FRONT RANGE...

CITY           SKY/WX    TMP DP  RH WIND       PRES   REMARKS
DENVER INTL AP FAIR      66  41  40 E12       30.04S
DMNS CITY PARK   N/A     69  35  27 W7G16     30.03S
AURORA         MOSUNNY   65  34  32 NE7       30.06R
FRONT RANGE AP MOSUNNY   64  41  42 E7        30.06S
ERIE MUNI ARPT FAIR      68  36  30 SE3       30.02S
BOULDER MUN AP FAIR      68  36  30 SE6       30.01S
CENTENNIAL     FAIR      66  32  28 VRB3      30.05S
BROOMFIELD     PTSUNNY   68  36  30 SE7       30.04F
FORT COLLINS   FAIR      66  43  42 SE9       30.02S
LONGMONT       FAIR      72  36  27 S5        30.03S
$$

COZ041-046-047-076>085-087-088-281900-
...PIKES PEAK/PALMER DIVIDE AND SOUTHERN FOOTHILLS...

CITY           SKY/WX    TMP DP  RH WIND       PRES   REMARKS
COLO. SPRINGS  FAIR      64  30  27 CALM      30.10S
A. F. ACADEMY  FAIR      64  32  29 S10G17    30.09S
SCHRIEVER AFB  NOT AVBL
ELLICOTT       FAIR     N/A N/A N/A CALM      30.09R
FALCON         FAIR      63  30  29 CALM      30.13S
FORT CARSON    PTSUNNY   65  35  32 VRB7      30.07S
LIMON          FAIR      64  38  38 VRB3      30.07R
MONUMENT HILL  FAIR      59  32  36 CALM      30.13S
TRINIDAD       FAIR      70  34  26 VRB5G18   30.07S
$$

COZ042>045-048>051-090-091-281900-
...NORTHEAST COLORADO...

CITY           SKY/WX    TMP DP  RH WIND       PRES   REMARKS
GREELEY ARPT   FAIR      70  43  37 SE9       30.03S
AKRON          FAIR      66  45  46 NW12G17   30.03R
BURLINGTON     FAIR      69  44  40 NW8       30.03S
WRAY           FAIR      70  46  43 W6        30.00S
STERLING       FAIR      68  48  49 W5        29.99R
HOLYOKE        FAIR      73  50  43 W3        29.99S
FORT MORGAN    FAIR      67  42  39 W3        30.03S
$$

COZ086-089-092>099-281900-
...SOUTHEAST COLORADO...

CITY           SKY/WX    TMP DP  RH WIND       PRES   REMARKS
PUEBLO         FAIR      72  36  26 VRB5      30.03S
LA JUNTA       FAIR      69  46  43 VRB3      30.03F
LAMAR          FAIR      72  45  37 N8        30.00F
SPRINGFIELD      N/A     70  42  36 S9G20     30.04S
$$




USA.gov is the U.S. government's official web portal to all federal, state and local government web resources and services.